Regional Weather Roundup
Issued by NWS

Home | Current Version | Previous Version | Graphics & Text | Print | Product List | Glossary On
Versions: 1 2 3 4 5 6 7 8 9 10 11 12 13 14 15 16 17 18 19 20 21 22 23 24 25 26 27 28 29 30 31 32 33 34 35 36 37 38 39 40 41 42 43 44 45 46 47 48 49 50
000
ASUS43 KIND 231100
RWRIN

WEATHER ROUNDUP FOR INDIANA
NATIONAL WEATHER SERVICE INDIANAPOLIS IN
700 AM EDT TUE MAY 23 2017

NOTE: "FAIR" INDICATES FEW OR NO CLOUDS BELOW 12,000 FEET WITH NO
SIGNIFICANT WEATHER AND/OR OBSTRUCTIONS TO VISIBILITY.

* - STATION DOES NOT REPORT WEATHER SUCH AS PRECIPITATION OR FOG.

+ - STATION NOT QUALITY CONTROLLED BY THE NATIONAL WEATHER SERVICE.
    USE DATA WITH CAUTION...ESPECIALLY DEWPOINT AND RELATIVE
    HUMIDITY OBSERVATIONS.

INZ001>003-010>013-019-020-231200-
NORTHWEST INDIANA

CITY           SKY/WX    TMP DP  RH WIND       PRES   REMARKS
GARY /AIRPORT/ MOCLDY    61  52  72 S6        29.84S
MICHIGAN CITY+ CLOUDY    59  52  77 S7        29.85R
MONTICELLO +   MOCLDY    57  53  87 CALM      29.87S
RENSSELAER +   CLOUDY    57  54  88 CALM      29.86S

$$

LMZ046-743>745-231200-
SOUTHERN LAKE MICHIGAN

STATION/POSITION TIME  TEMP    WIND        PRES    WAVE
                       AIR SEA DIR/SP/G            HT
                 (UTC) (F)     (DEG/KT/KT) (MB)    (FT)
BURNS HARBOR     1040   60     190/ 11/ 13 1010.8S
MICHIGAN CITY    1030   60     180/ 10/ 13   N/A
5NW MICH CITY    1050   57 53  200/ 10/ 14   N/A     1

$$

INZ004-005-014>016-021>024-231200-
NORTH CENTRAL INDIANA

CITY           SKY/WX    TMP DP  RH WIND       PRES   REMARKS
ELKHART        LGT RAIN  59  52  77 S6        29.86
GOSHEN         CLOUDY    58  51  78 S6        29.87F
SOUTH BEND     LGT RAIN  58  53  84 S9        29.86S

$$

INZ006>009-017-018-025>027-231200-
NORTHEAST INDIANA

CITY           SKY/WX    TMP DP  RH WIND       PRES   REMARKS
ANGOLA *+      CLOUDY    57  46  67 S3        29.88F
FORT WAYNE     CLOUDY    56  51  84 CALM      29.88F
KENDALLVILLE + CLOUDY    57  50  77 S5        29.89S

$$

INZ028-029-035-036-043>045-051>053-231200-
WEST CENTRAL INDIANA

CITY           SKY/WX    TMP DP  RH WIND       PRES   REMARKS
GREENCASTLE +  CLOUDY    54  50  87 CALM      29.87F
LAFAYETTE      CLOUDY    56  53  90 CALM      29.86F
TERRE HAUTE    MOCLDY    57  49  74 CALM      29.86S

$$

INZ030>032-037>040-046>048-054>057-064-065-231200-
CENTRAL INDIANA

CITY           SKY/WX    TMP DP  RH WIND       PRES   REMARKS
CP ATTERBURY + CLOUDY    50  50 100 CALM      29.89S
COLUMBUS       PTCLDY    55  50  82 CALM      29.89
INDIANAPOLIS   CLOUDY    58  49  72 CALM      29.87S
-EAGLE CREEK   MOCLDY    57  50  77 CALM      29.87S
KOKOMO +       CLOUDY    57  52  83 CALM      29.88F
SHELBYVILLE    CLOUDY    57  51  80 E5        29.88S

$$

INZ033-034-041-042-049-050-058-059-231200-
EAST CENTRAL INDIANA

CITY           SKY/WX    TMP DP  RH WIND       PRES   REMARKS
MUNCIE         PTCLDY    59  48  67 SE3       29.88F
RICHMOND +     CLOUDY    52  46  82 E3        29.91R

$$

INZ060-061-067>069-081>083-085>088-231200-
SOUTHWEST INDIANA

CITY           SKY/WX    TMP DP  RH WIND       PRES   REMARKS
EVANSVILLE     CLOUDY    58  53  84 NE3       29.85F
HUNTINGBURG *+ CLOUDY    54  52  93 E3        29.86F

$$

INZ062-063-066-070>080-084-089>092-231200-
SOUTH CENTRAL AND SOUTHEAST INDIANA

CITY           SKY/WX    TMP DP  RH WIND       PRES   REMARKS
BLOOMINGTON    CLOUDY    56  49  77 SE5       29.87S
MADISON *+     MOCLDY    52  50  93 CALM      29.90S
SEYMOUR +      CLOUDY    54  54 100 CALM      29.88S

$$




USA.gov is the U.S. government's official web portal to all federal, state and local government web resources and services.